EJU93RP LIMC-LEPA

Flight info

Callsign EJU93RP
Flight time 1h 36m
Altitude 35000
Route LAGEN DCT ANAKI DCT IXITO DCT PIDAD DCT TALEP DCT RARQU DCT BALEN/N0413F290 UT250 RIXOT
Aircraft A320/M-SDE2E3FGHIJ1RWXYZ/LB1

Departure

Time 2026-05-06 18:27
Airport Milan Malpensa International Airport (LIMC)

Arrival

Time 2026-05-06 20:03
Airport Palma de Mallorca Airport (LEPA)
Time Latitude Longitude Altitude Speed Heading
2026-05-06 18:01 45.64524 8.72353 740 ft 0 kts 349°
2026-05-06 18:18 45.64520 8.72354 740 ft 3 kts 349°
2026-05-06 18:18 45.64494 8.72360 739 ft 4 kts 355°
2026-05-06 18:18 45.64467 8.72361 738 ft 4 kts
2026-05-06 18:18 45.64443 8.72350 738 ft 4 kts 51°
2026-05-06 18:19 45.64438 8.72338 739 ft 0 kts 79°
2026-05-06 18:21 45.64440 8.72369 739 ft 7 kts 94°
2026-05-06 18:21 45.64378 8.72437 740 ft 17 kts 165°
2026-05-06 18:21 45.64254 8.72472 740 ft 18 kts 168°
2026-05-06 18:21 45.64125 8.72512 740 ft 21 kts 167°
2026-05-06 18:22 45.63963 8.72561 740 ft 26 kts 168°
2026-05-06 18:22 45.63769 8.72616 741 ft 30 kts 169°
2026-05-06 18:22 45.63563 8.72671 740 ft 30 kts 169°
2026-05-06 18:22 45.63356 8.72727 741 ft 30 kts 169°
2026-05-06 18:23 45.63157 8.72784 741 ft 29 kts 169°
2026-05-06 18:23 45.62957 8.72839 741 ft 29 kts 169°
2026-05-06 18:23 45.62760 8.72893 741 ft 29 kts 169°
2026-05-06 18:23 45.62560 8.72948 740 ft 30 kts 169°
2026-05-06 18:24 45.62356 8.73004 740 ft 27 kts 168°
2026-05-06 18:24 45.62266 8.73029 741 ft 9 kts 169°
2026-05-06 18:24 45.62197 8.73048 741 ft 14 kts 169°
2026-05-06 18:24 45.62080 8.73081 741 ft 18 kts 169°
2026-05-06 18:25 45.61969 8.73111 741 ft 15 kts 169°
2026-05-06 18:25 45.61869 8.73139 741 ft 16 kts 168°
2026-05-06 18:25 45.61748 8.73211 741 ft 20 kts 136°
2026-05-06 18:25 45.61664 8.73374 741 ft 21 kts 124°
2026-05-06 18:26 45.61590 8.73550 741 ft 20 kts 107°
2026-05-06 18:26 45.61617 8.73709 738 ft 14 kts 38°
2026-05-06 18:26 45.61718 8.73709 739 ft 23 kts 349°
2026-05-06 18:26 45.62131 8.73595 738 ft 95 kts 349°
2026-05-06 18:27 45.62959 8.73366 738 ft 149 kts 349°
2026-05-06 18:27 45.64090 8.73067 1108 ft 164 kts 350°
2026-05-06 18:27 45.65217 8.72799 1810 ft 164 kts 351°
2026-05-06 18:27 45.66315 8.72231 2239 ft 181 kts 324°
2026-05-06 18:28 45.67070 8.70731 2501 ft 203 kts 284°
2026-05-06 18:28 45.67244 8.68611 2747 ft 228 kts 273°
2026-05-06 18:28 45.67354 8.66237 3119 ft 252 kts 272°
2026-05-06 18:28 45.67467 8.63666 3768 ft 263 kts 272°
2026-05-06 18:29 45.67586 8.61030 4629 ft 268 kts 274°
2026-05-06 18:29 45.67710 8.58352 5487 ft 271 kts 274°
2026-05-06 18:29 45.67617 8.55655 6346 ft 275 kts 257°
2026-05-06 18:29 45.66886 8.53131 7169 ft 277 kts 236°
2026-05-06 18:30 45.65577 8.51116 8045 ft 279 kts 217°
2026-05-06 18:30 45.63860 8.49830 8925 ft 280 kts 203°
2026-05-06 18:30 45.62057 8.48796 9812 ft 280 kts 203°
2026-05-06 18:30 45.60219 8.47731 10328 ft 294 kts 204°
2026-05-06 18:31 45.58252 8.46580 10609 ft 315 kts 204°
2026-05-06 18:31 45.56200 8.45377 11225 ft 321 kts 204°
2026-05-06 18:31 45.54114 8.44194 11967 ft 325 kts 202°
2026-05-06 18:31 45.51979 8.43090 12726 ft 327 kts 201°
2026-05-06 18:32 45.49815 8.42033 13492 ft 330 kts 200°
2026-05-06 18:32 45.47631 8.40989 14179 ft 332 kts 200°
2026-05-06 18:32 45.45440 8.39939 14827 ft 334 kts 200°
2026-05-06 18:32 45.43228 8.38866 15468 ft 337 kts 200°
2026-05-06 18:33 45.41001 8.37776 16110 ft 339 kts 200°
2026-05-06 18:33 45.38760 8.36673 16749 ft 342 kts 200°
2026-05-06 18:33 45.36506 8.35558 17394 ft 344 kts 200°
2026-05-06 18:33 45.34235 8.34434 18036 ft 346 kts 200°
2026-05-06 18:34 45.31954 8.33306 18592 ft 349 kts 200°
2026-05-06 18:34 45.29657 8.32171 19166 ft 350 kts 200°
2026-05-06 18:34 45.27350 8.31035 19749 ft 351 kts 201°
2026-05-06 18:34 45.25043 8.29903 20356 ft 352 kts 201°
2026-05-06 18:35 45.22728 8.28765 20968 ft 352 kts 201°
2026-05-06 18:35 45.20409 8.27626 21575 ft 353 kts 202°
2026-05-06 18:35 45.18085 8.26485 22183 ft 354 kts 202°
2026-05-06 18:35 45.15761 8.25345 22777 ft 354 kts 202°
2026-05-06 18:36 45.13414 8.24254 23364 ft 357 kts 198°
2026-05-06 18:36 45.10940 8.23731 23833 ft 364 kts 187°
2026-05-06 18:36 45.08420 8.23967 24242 ft 373 kts 175°
2026-05-06 18:36 45.05875 8.24868 24656 ft 379 kts 171°
2026-05-06 18:37 45.03323 8.25850 25067 ft 381 kts 172°
2026-05-06 18:37 45.01597 8.26509 25346 ft 382 kts 172°
2026-05-06 18:37 44.98191 8.27798 25876 ft 384 kts 172°
2026-05-06 18:37 44.95605 8.28773 26282 ft 385 kts 172°
2026-05-06 18:38 44.93005 8.29753 26676 ft 387 kts 172°
2026-05-06 18:38 44.90405 8.30733 27065 ft 388 kts 172°
2026-05-06 18:38 44.87789 8.31719 27414 ft 390 kts 172°
2026-05-06 18:38 44.85158 8.32707 27755 ft 392 kts 173°
2026-05-06 18:39 44.82513 8.33699 28105 ft 394 kts 173°
2026-05-06 18:39 44.79864 8.34694 28453 ft 395 kts 173°
2026-05-06 18:39 44.78098 8.35357 28684 ft 396 kts 173°
2026-05-06 18:40 44.72755 8.37367 29345 ft 399 kts 173°
2026-05-06 18:40 44.70070 8.38378 29695 ft 400 kts 173°
2026-05-06 18:40 44.67379 8.39390 29987 ft 401 kts 173°
2026-05-06 18:40 44.64682 8.40402 30236 ft 403 kts 173°
2026-05-06 18:41 44.61967 8.41415 30468 ft 405 kts 173°
2026-05-06 18:41 44.59237 8.42430 30688 ft 407 kts 173°
2026-05-06 18:41 44.56501 8.43446 30921 ft 409 kts 173°
2026-05-06 18:41 44.53745 8.44467 31164 ft 410 kts 173°
2026-05-06 18:42 44.50989 8.45492 31470 ft 409 kts 173°
2026-05-06 18:42 44.48236 8.46515 31798 ft 409 kts 173°
2026-05-06 18:42 44.45493 8.47537 32092 ft 409 kts 173°
2026-05-06 18:42 44.42743 8.48566 32375 ft 409 kts 172°
2026-05-06 18:43 44.40045 8.49982 32693 ft 420 kts 162°
2026-05-06 18:43 44.37507 8.52107 33033 ft 432 kts 152°
2026-05-06 18:43 44.35175 8.54798 33331 ft 437 kts 148°
2026-05-06 18:43 44.32862 8.57550 33635 ft 436 kts 148°
2026-05-06 18:44 44.30547 8.60294 33919 ft 436 kts 149°
2026-05-06 18:44 44.28228 8.63025 34129 ft 436 kts 149°
2026-05-06 18:44 44.25910 8.65744 34365 ft 436 kts 149°
2026-05-06 18:44 44.23585 8.68468 34577 ft 436 kts 149°
2026-05-06 18:45 44.21258 8.71193 34786 ft 437 kts 148°
2026-05-06 18:45 44.16500 8.76313 34877 ft 420 kts 159°
2026-05-06 18:45 44.13911 8.78027 34876 ft 407 kts 168°
2026-05-06 18:46 44.11217 8.79032 34881 ft 396 kts 179°
2026-05-06 18:46 44.05853 8.78983 34880 ft 381 kts 194°
2026-05-06 18:47 44.00602 8.77998 34885 ft 380 kts 193°
2026-05-06 18:47 43.95353 8.77052 34884 ft 380 kts 193°
2026-05-06 18:48 43.90135 8.76116 34882 ft 380 kts 193°
2026-05-06 18:48 43.84894 8.75173 34875 ft 380 kts 193°
2026-05-06 18:49 43.79664 8.74231 34887 ft 379 kts 193°
2026-05-06 18:49 43.74432 8.73293 34889 ft 379 kts 193°
2026-05-06 18:50 43.69204 8.72355 34869 ft 379 kts 193°
2026-05-06 18:50 43.63978 8.71412 34903 ft 379 kts 193°
2026-05-06 18:51 43.58656 8.71205 34896 ft 385 kts 187°
2026-05-06 18:51 43.53301 8.71190 34896 ft 382 kts 191°
2026-05-06 18:51 43.50797 8.70329 34896 ft 367 kts 210°
2026-05-06 18:52 43.48593 8.68589 34878 ft 365 kts 214°
2026-05-06 18:52 43.44236 8.64977 34883 ft 366 kts 214°
2026-05-06 18:53 43.39894 8.61377 34888 ft 367 kts 214°
2026-05-06 18:53 43.35522 8.57750 34893 ft 367 kts 214°
2026-05-06 18:54 43.31482 8.53508 34897 ft 365 kts 223°
2026-05-06 18:54 43.27795 8.48721 34881 ft 365 kts 225°
2026-05-06 18:55 43.24099 8.43918 34893 ft 366 kts 224°
2026-05-06 18:55 43.20326 8.39228 34900 ft 366 kts 223°
2026-05-06 18:56 43.16514 8.34579 34912 ft 367 kts 223°
2026-05-06 18:56 43.12698 8.29930 34908 ft 367 kts 223°
2026-05-06 18:57 43.08882 8.25282 34909 ft 367 kts 223°
2026-05-06 18:57 43.05092 8.20667 34919 ft 367 kts 223°
2026-05-06 18:58 43.01278 8.16032 34915 ft 367 kts 223°
2026-05-06 18:58 42.97464 8.11388 34920 ft 367 kts 223°
2026-05-06 18:59 42.93644 8.06761 34917 ft 367 kts 223°
2026-05-06 18:59 42.89815 8.02133 34927 ft 368 kts 223°
2026-05-06 19:00 42.85986 7.97502 34930 ft 368 kts 223°
2026-05-06 19:00 42.82156 7.92878 34961 ft 368 kts 223°
2026-05-06 19:01 42.78320 7.88255 34946 ft 368 kts 223°
2026-05-06 19:01 42.74488 7.83645 34928 ft 368 kts 223°
2026-05-06 19:02 42.70650 7.79040 34939 ft 368 kts 223°
2026-05-06 19:02 42.66810 7.74438 34941 ft 368 kts 223°
2026-05-06 19:03 42.62993 7.69871 34941 ft 368 kts 223°
2026-05-06 19:03 42.59150 7.65272 34946 ft 368 kts 223°
2026-05-06 19:04 42.55304 7.60691 34950 ft 368 kts 223°
2026-05-06 19:04 42.51445 7.56105 34978 ft 368 kts 223°
2026-05-06 19:05 42.47591 7.51540 34967 ft 368 kts 223°
2026-05-06 19:05 42.43769 7.46931 34971 ft 366 kts 230°
2026-05-06 19:05 42.42483 7.44001 34963 ft 365 kts 252°
2026-05-06 19:06 42.42267 7.40575 34951 ft 375 kts 274°
2026-05-06 19:06 42.43178 7.37211 34947 ft 392 kts 294°
2026-05-06 19:06 42.44660 7.34092 34938 ft 390 kts 289°
2026-05-06 19:06 42.45418 7.30703 34933 ft 370 kts 268°
2026-05-06 19:07 42.45302 7.27270 34929 ft 362 kts 255°
2026-05-06 19:07 42.44483 7.24079 34929 ft 358 kts 239°
2026-05-06 19:07 42.42985 7.21395 34926 ft 360 kts 224°
2026-05-06 19:08 42.39080 7.17178 34927 ft 363 kts 220°
2026-05-06 19:08 42.35048 7.12957 34935 ft 369 kts 220°
2026-05-06 19:09 42.30994 7.08704 34956 ft 369 kts 221°
2026-05-06 19:09 42.26950 7.04439 34957 ft 368 kts 221°
2026-05-06 19:10 42.22905 7.00183 34958 ft 368 kts 221°
2026-05-06 19:10 42.18854 6.95937 34942 ft 369 kts 221°
2026-05-06 19:11 42.14798 6.91692 34948 ft 369 kts 221°
2026-05-06 19:11 42.10735 6.87452 34953 ft 369 kts 221°
2026-05-06 19:12 42.06679 6.83210 34977 ft 369 kts 221°
2026-05-06 19:12 42.02617 6.78970 34976 ft 369 kts 221°
2026-05-06 19:13 41.98556 6.74745 34958 ft 369 kts 221°
2026-05-06 19:13 41.94481 6.70523 34961 ft 370 kts 221°
2026-05-06 19:14 41.90434 6.66335 34964 ft 370 kts 221°
2026-05-06 19:14 41.86359 6.62115 34966 ft 370 kts 221°
2026-05-06 19:15 41.82272 6.57889 34971 ft 370 kts 221°
2026-05-06 19:15 41.78190 6.53682 34947 ft 370 kts 221°
2026-05-06 19:16 41.74107 6.49463 34955 ft 371 kts 221°
2026-05-06 19:16 41.70013 6.45255 34982 ft 371 kts 221°
2026-05-06 19:17 41.65919 6.41058 34984 ft 370 kts 221°
2026-05-06 19:17 41.61830 6.36871 34980 ft 370 kts 221°
2026-05-06 19:18 41.57750 6.32690 34962 ft 370 kts 221°
2026-05-06 19:18 41.53686 6.28538 34965 ft 370 kts 221°
2026-05-06 19:19 41.49580 6.24361 34970 ft 371 kts 221°
2026-05-06 19:19 41.45482 6.20186 34975 ft 371 kts 221°
2026-05-06 19:20 41.41379 6.16019 34974 ft 371 kts 221°
2026-05-06 19:20 41.37270 6.11841 34950 ft 372 kts 221°
2026-05-06 19:21 41.33156 6.07662 34985 ft 373 kts 221°
2026-05-06 19:21 41.29021 6.03489 34986 ft 372 kts 221°
2026-05-06 19:22 41.24897 5.99333 34981 ft 372 kts 221°
2026-05-06 19:22 41.20799 5.95206 34980 ft 372 kts 221°
2026-05-06 19:23 41.16674 5.91052 34950 ft 372 kts 221°
2026-05-06 19:23 41.12543 5.86895 34957 ft 373 kts 221°
2026-05-06 19:24 41.08396 5.82732 34961 ft 374 kts 221°
2026-05-06 19:24 41.04248 5.78578 34964 ft 374 kts 221°
2026-05-06 19:25 41.00094 5.74420 34970 ft 374 kts 221°
2026-05-06 19:25 40.95971 5.70229 34667 ft 370 kts 225°
2026-05-06 19:25 40.94161 5.67849 34423 ft 364 kts 232°
2026-05-06 19:26 40.92631 5.65213 34185 ft 359 kts 237°
2026-05-06 19:26 40.91204 5.62520 33943 ft 357 kts 237°
2026-05-06 19:26 40.89775 5.59845 33665 ft 355 kts 237°
2026-05-06 19:26 40.88348 5.57190 33396 ft 353 kts 236°
2026-05-06 19:27 40.86927 5.54554 33124 ft 352 kts 236°
2026-05-06 19:27 40.85986 5.52810 32949 ft 351 kts 236°
2026-05-06 19:27 40.84574 5.50186 32680 ft 350 kts 236°
2026-05-06 19:27 40.83172 5.47577 32419 ft 348 kts 236°
2026-05-06 19:28 40.81771 5.44965 32155 ft 347 kts 236°
2026-05-06 19:28 40.80379 5.42368 31894 ft 346 kts 236°
2026-05-06 19:28 40.78993 5.39786 31643 ft 345 kts 236°
2026-05-06 19:28 40.77605 5.37209 31370 ft 344 kts 236°
2026-05-06 19:29 40.76216 5.34634 31109 ft 344 kts 236°
2026-05-06 19:29 40.74828 5.32066 30884 ft 343 kts 236°
2026-05-06 19:29 40.73447 5.29516 30640 ft 340 kts 236°
2026-05-06 19:29 40.72093 5.27016 30397 ft 339 kts 236°
2026-05-06 19:30 40.70711 5.24463 30148 ft 338 kts 236°
2026-05-06 19:30 40.69349 5.21947 29876 ft 336 kts 236°
2026-05-06 19:30 40.68008 5.19476 29604 ft 335 kts 236°
2026-05-06 19:30 40.66638 5.16954 29321 ft 334 kts 236°
2026-05-06 19:31 40.65305 5.14502 29048 ft 333 kts 236°
2026-05-06 19:31 40.63958 5.12025 28773 ft 332 kts 236°
2026-05-06 19:31 40.61387 5.07005 28230 ft 330 kts 238°
2026-05-06 19:32 40.60150 5.04469 27964 ft 329 kts 238°
2026-05-06 19:32 40.58922 5.01934 27699 ft 328 kts 238°
2026-05-06 19:32 40.57696 4.99408 27438 ft 327 kts 238°
2026-05-06 19:32 40.56474 4.96896 27176 ft 326 kts 238°
2026-05-06 19:33 40.55246 4.94390 26932 ft 325 kts 238°
2026-05-06 19:33 40.54018 4.91903 26677 ft 324 kts 238°
2026-05-06 19:33 40.52788 4.89420 26422 ft 324 kts 238°
2026-05-06 19:33 40.51561 4.86943 26167 ft 323 kts 238°
2026-05-06 19:34 40.50336 4.84474 25931 ft 322 kts 238°
2026-05-06 19:34 40.49115 4.82015 25681 ft 321 kts 238°
2026-05-06 19:34 40.47896 4.79555 25434 ft 321 kts 238°
2026-05-06 19:34 40.46679 4.77099 25192 ft 320 kts 238°
2026-05-06 19:35 40.45462 4.74650 24953 ft 320 kts 238°
2026-05-06 19:35 40.44249 4.72206 24716 ft 319 kts 238°
2026-05-06 19:35 40.43037 4.69765 24469 ft 319 kts 238°
2026-05-06 19:35 40.41829 4.67334 24243 ft 318 kts 238°
2026-05-06 19:36 40.40619 4.64904 24003 ft 318 kts 238°
2026-05-06 19:36 40.39411 4.62478 23777 ft 317 kts 238°
2026-05-06 19:36 40.38206 4.60062 23527 ft 317 kts 238°
2026-05-06 19:36 40.36998 4.57642 23253 ft 316 kts 237°
2026-05-06 19:37 40.35797 4.55234 23026 ft 315 kts 238°
2026-05-06 19:37 40.34599 4.52837 22975 ft 315 kts 238°
2026-05-06 19:37 40.33396 4.50430 22984 ft 316 kts 238°
2026-05-06 19:37 40.32192 4.48022 22987 ft 316 kts 237°
2026-05-06 19:38 40.30985 4.45616 22987 ft 316 kts 237°
2026-05-06 19:38 40.29776 4.43210 22989 ft 316 kts 237°
2026-05-06 19:38 40.28569 4.40811 22987 ft 316 kts 237°
2026-05-06 19:38 40.27359 4.38406 22985 ft 316 kts 237°
2026-05-06 19:39 40.26152 4.36007 22985 ft 316 kts 237°
2026-05-06 19:39 40.24957 4.33629 22983 ft 316 kts 237°
2026-05-06 19:39 40.23736 4.31198 22955 ft 317 kts 237°
2026-05-06 19:39 40.22544 4.28824 22674 ft 315 kts 237°
2026-05-06 19:40 40.21339 4.26436 22406 ft 314 kts 237°
2026-05-06 19:40 40.20136 4.24056 22141 ft 313 kts 237°
2026-05-06 19:40 40.18938 4.21691 21877 ft 312 kts 237°
2026-05-06 19:40 40.17740 4.19328 21616 ft 311 kts 237°
2026-05-06 19:41 40.16546 4.16971 21356 ft 311 kts 238°
2026-05-06 19:41 40.15355 4.14616 21100 ft 310 kts 238°
2026-05-06 19:41 40.14168 4.12266 20847 ft 309 kts 238°
2026-05-06 19:41 40.12984 4.09922 20593 ft 308 kts 238°
2026-05-06 19:42 40.11801 4.07587 20343 ft 308 kts 238°
2026-05-06 19:42 40.10619 4.05259 20093 ft 307 kts 238°
2026-05-06 19:42 40.09439 4.02938 19850 ft 306 kts 238°
2026-05-06 19:42 40.08261 4.00623 19606 ft 306 kts 238°
2026-05-06 19:43 40.07083 3.98315 19364 ft 305 kts 238°
2026-05-06 19:43 40.05910 3.96019 19121 ft 304 kts 238°
2026-05-06 19:43 40.04739 3.93721 18886 ft 304 kts 238°
2026-05-06 19:43 40.03572 3.91427 18651 ft 303 kts 238°
2026-05-06 19:44 40.02407 3.89140 18415 ft 302 kts 238°
2026-05-06 19:44 40.01260 3.86895 18163 ft 302 kts 238°
2026-05-06 19:44 40.00096 3.84620 17902 ft 301 kts 238°
2026-05-06 19:44 39.98935 3.82353 17632 ft 300 kts 238°
2026-05-06 19:45 39.97782 3.80099 17375 ft 299 kts 238°
2026-05-06 19:45 39.96629 3.77847 17096 ft 298 kts 238°
2026-05-06 19:45 39.95475 3.75598 16835 ft 299 kts 238°
2026-05-06 19:45 39.94323 3.73348 16574 ft 298 kts 238°
2026-05-06 19:46 39.93176 3.71107 16324 ft 297 kts 237°
2026-05-06 19:46 39.92027 3.68871 16068 ft 296 kts 237°
2026-05-06 19:46 39.90881 3.66643 15815 ft 295 kts 237°
2026-05-06 19:46 39.89738 3.64423 15566 ft 295 kts 237°
2026-05-06 19:47 39.88603 3.62212 15318 ft 294 kts 237°
2026-05-06 19:47 39.87466 3.60004 15076 ft 293 kts 237°
2026-05-06 19:47 39.86331 3.57804 14828 ft 292 kts 237°
2026-05-06 19:47 39.85202 3.55614 14581 ft 291 kts 237°
2026-05-06 19:48 39.84073 3.53427 14346 ft 291 kts 237°
2026-05-06 19:48 39.82946 3.51244 14113 ft 290 kts 237°
2026-05-06 19:48 39.81823 3.49068 13871 ft 289 kts 237°
2026-05-06 19:48 39.80701 3.46897 13615 ft 289 kts 237°
2026-05-06 19:49 39.79583 3.44738 13345 ft 288 kts 237°
2026-05-06 19:49 39.78467 3.42580 13078 ft 287 kts 237°
2026-05-06 19:49 39.77366 3.40456 12811 ft 287 kts 237°
2026-05-06 19:49 39.76251 3.38309 12560 ft 286 kts 237°
2026-05-06 19:50 39.75138 3.36164 12291 ft 287 kts 237°
2026-05-06 19:50 39.74008 3.33988 12021 ft 287 kts 237°
2026-05-06 19:50 39.72904 3.31864 11782 ft 287 kts 237°
2026-05-06 19:50 39.71788 3.29718 11537 ft 287 kts 237°
2026-05-06 19:51 39.70669 3.27570 11281 ft 287 kts 237°
2026-05-06 19:51 39.69551 3.25424 11032 ft 287 kts 237°
2026-05-06 19:51 39.68434 3.23280 10788 ft 286 kts 237°
2026-05-06 19:51 39.67317 3.21141 10543 ft 286 kts 236°
2026-05-06 19:52 39.66200 3.19002 10302 ft 286 kts 236°
2026-05-06 19:52 39.65087 3.16869 10063 ft 286 kts 237°
2026-05-06 19:52 39.63975 3.14739 9876 ft 284 kts 236°
2026-05-06 19:52 39.62865 3.12617 9745 ft 284 kts 236°
2026-05-06 19:53 39.61754 3.10497 9608 ft 284 kts 236°
2026-05-06 19:53 39.60648 3.08384 9474 ft 283 kts 236°
2026-05-06 19:53 39.59550 3.06285 9170 ft 279 kts 236°
2026-05-06 19:53 39.58465 3.04212 8808 ft 277 kts 236°
2026-05-06 19:54 39.57386 3.02153 8416 ft 275 kts 236°
2026-05-06 19:54 39.56313 3.00105 8032 ft 274 kts 236°
2026-05-06 19:54 39.55246 2.98075 7642 ft 273 kts 236°
2026-05-06 19:54 39.54179 2.96048 7240 ft 272 kts 236°
2026-05-06 19:55 39.53115 2.94028 6845 ft 271 kts 236°
2026-05-06 19:55 39.52053 2.92009 6436 ft 271 kts 235°
2026-05-06 19:55 39.50995 2.89996 6026 ft 269 kts 235°
2026-05-06 19:55 39.49944 2.87998 5613 ft 269 kts 235°
2026-05-06 19:56 39.48891 2.86003 5202 ft 268 kts 235°
2026-05-06 19:56 39.47840 2.84015 4789 ft 267 kts 234°
2026-05-06 19:56 39.46792 2.82034 4339 ft 267 kts 234°
2026-05-06 19:56 39.45746 2.80053 3916 ft 266 kts 234°
2026-05-06 19:57 39.44704 2.78076 3484 ft 266 kts 234°
2026-05-06 19:57 39.43785 2.76007 3050 ft 266 kts 247°
2026-05-06 19:57 39.43336 2.73723 2839 ft 257 kts 263°
2026-05-06 19:57 39.43148 2.71491 2778 ft 242 kts 263°
2026-05-06 19:58 39.42962 2.69416 2723 ft 229 kts 262°
2026-05-06 19:58 39.42778 2.67432 2671 ft 216 kts 262°
2026-05-06 19:58 39.42602 2.65550 2605 ft 206 kts 262°
2026-05-06 19:58 39.42439 2.63766 2494 ft 194 kts 264°
2026-05-06 19:59 39.42614 2.62098 2273 ft 185 kts 293°
2026-05-06 19:59 39.43373 2.60802 1897 ft 180 kts 326°
2026-05-06 19:59 39.44499 2.60178 1517 ft 175 kts 356°
2026-05-06 19:59 39.45676 2.60312 1497 ft 172 kts 17°
2026-05-06 20:00 39.46846 2.60683 1494 ft 174 kts 16°
2026-05-06 20:00 39.48022 2.61053 1494 ft 174 kts 16°
2026-05-06 20:00 39.49199 2.61428 1493 ft 174 kts 18°
2026-05-06 20:00 39.50269 2.62109 1484 ft 172 kts 41°
2026-05-06 20:01 39.51024 2.63283 1371 ft 170 kts 60°
2026-05-06 20:01 39.51633 2.64569 1172 ft 161 kts 60°
2026-05-06 20:01 39.52186 2.65735 992 ft 145 kts 59°
2026-05-06 20:01 39.52701 2.66821 809 ft 139 kts 59°
2026-05-06 20:02 39.53203 2.67883 638 ft 138 kts 59°
2026-05-06 20:02 39.53706 2.68935 432 ft 137 kts 59°
2026-05-06 20:02 39.54202 2.69984 258 ft 136 kts 58°
2026-05-06 20:02 39.54694 2.71022 88 ft 135 kts 59°
2026-05-06 20:03 39.55147 2.71985 37 ft 112 kts 58°
2026-05-06 20:03 39.55463 2.72654 38 ft 61 kts 59°
2026-05-06 20:03 39.55634 2.73010 38 ft 42 kts 58°
2026-05-06 20:03 39.55714 2.73295 38 ft 28 kts 88°
2026-05-06 20:04 39.55716 2.73474 38 ft 11 kts 90°
2026-05-06 20:04 39.55676 2.73521 38 ft 8 kts 195°
2026-05-06 20:04 39.55613 2.73511 38 ft 12 kts 165°
2026-05-06 20:04 39.55542 2.73561 38 ft 11 kts 149°
2026-05-06 20:05 39.55477 2.73611 38 ft 13 kts 149°
2026-05-06 20:05 39.55385 2.73685 38 ft 18 kts 148°
2026-05-06 20:05 39.55267 2.73779 38 ft 21 kts 148°
2026-05-06 20:05 39.55135 2.73883 38 ft 23 kts 149°
2026-05-06 20:06 39.54992 2.73995 37 ft 25 kts 149°
2026-05-06 20:06 39.54860 2.74101 38 ft 17 kts 148°
2026-05-06 20:06 39.54777 2.74093 37 ft 12 kts 224°
2026-05-06 20:06 39.54741 2.74007 38 ft 10 kts 263°
2026-05-06 20:07 39.54759 2.73924 38 ft 10 kts 282°
2026-05-06 20:07 39.54733 2.73833 38 ft 13 kts 240°
2026-05-06 20:07 39.54690 2.73735 38 ft 12 kts 240°
2026-05-06 20:07 39.54661 2.73643 38 ft 11 kts 272°
2026-05-06 20:08 39.54711 2.73577 38 ft 10 kts 329°
2026-05-06 20:08 39.54767 2.73534 38 ft 9 kts 329°
2026-05-06 20:08 39.54809 2.73524 38 ft 2 kts 16°
2026-05-06 20:08 39.54820 2.73541 37 ft 4 kts 58°
2026-05-06 20:09 39.54831 2.73563 38 ft 2 kts 59°
2026-05-06 20:09 39.54835 2.73571 38 ft 0 kts 58°